Regional Weather Roundup
Issued by NWS Boston, MA

Current Version | Previous Version | Text Only | Print | Product List | Glossary Off
Versions: 1 2 3 4 5 6 7 8 9 10 11 12 13 14 15 16 17 18 19 20 21 22 23 24 25 26 27 28
000 ASUS41 KBOX 232210 RWRBOX REGIONAL WEATHER ROUNDUP NATIONAL WEATHER SERVICE TAUNTON MA 600 PM EDT FRI JUN 23 2017 NOTE: "FAIR" INDICATES FEW OR NO CLOUDS BELOW 12,000 FEET WITH NO SIGNIFICANT WEATHER AND/OR OBSTRUCTIONS TO VISIBILITY. MAZALL-232300- EASTERN MASSACHUSETTS CITY SKY/WX TMP DP RH WIND PRES REMARKS BOSTON MOSUNNY 81 68 64 S14 29.61F BEVERLY SUNNY 83 65 54 S12G23 29.59F LAWRENCE MOSUNNY 88 68 51 S9 29.60F HX 91 BEDFORD MOSUNNY 86 64 47 S17G24 29.58F BLUE HILL N/A 78 68 71 S16G26 29.64F NORWOOD MOSUNNY 82 70 66 S14G24 29.62S MARSHFIELD MOSUNNY 81 70 69 SW13G25 29.63F PLYMOUTH PTSUNNY 76 67 73 S17G25 29.67F TAUNTON CLOUDY 77 68 73 SW13G22 29.65F NEW BEDFORD CLOUDY 72 67 84 SW21G26 29.68S $$ MAZALL-232300- CAPE COD AND THE ISLANDS CITY SKY/WX TMP DP RH WIND PRES REMARKS FALMOUTH CLOUDY 73 68 83 SW22G31 29.70F HYANNIS CLOUDY 72 67 84 S13 29.69F CHATHAM CLOUDY 71 67 87 SW9G21 29.73F PROVINCETOWN CLOUDY 72 67 84 S15G22 29.68F NANTUCKET CLOUDY 66 65 96 S14 29.74F MARTHAS VNYRD CLOUDY 69 65 86 SW14 29.72F $$ MAZALL-232300- CENTRAL AND WESTERN MASSACHUSETTS CITY SKY/WX TMP DP RH WIND PRES REMARKS WORCESTER CLOUDY 78 64 61 S14G23 29.65F FITCHBURG PTSUNNY 87 64 46 S17G24 29.60F ORANGE CLOUDY 78 69 73 SW10 29.62R SPRINGFIELD PTSUNNY 78 70 77 S16G23 29.60F WESTFIELD N/A 80 71 74 S10 N/A NORTH ADAMS PTSUNNY 80 68 66 S6 29.60F PITTSFIELD CLOUDY 75 68 78 S8 29.63F $$ RIZALL-232300- RHODE ISLAND CITY SKY/WX TMP DP RH WIND PRES REMARKS PROVIDENCE CLOUDY 75 70 84 SW17G28 29.67S NEWPORT CLOUDY 69 68 96 S13G22 29.69F BLOCK ISLAND CLOUDY 69 65 86 SW21 29.70F WESTERLY CLOUDY 73 67 81 SW14G22 29.69F $$ CTZALL-232300- CONNECTICUT CITY SKY/WX TMP DP RH WIND PRES REMARKS BRADLEY INTL PTSUNNY 79 73 82 S12 29.62F HARTFORD CLOUDY 79 72 79 S12G17 29.62F BRIDGEPORT CLOUDY 78 69 73 S17 29.66S DANBURY CLOUDY 80 71 74 SW12G21 29.67S GROTON N/A N/A N/A N/A MISG 29.67F NEW HAVEN CLOUDY 75 70 83 S9 29.66F CHESTER CLOUDY 75 72 88 SW8G15 29.68F MERIDEN PTSUNNY 79 70 74 S12G18 29.65F WILLIMANTIC CLOUDY 79 71 76 SW9G18 29.65S OXFORD PTSUNNY 77 68 73 SW9 29.68F $$ MEZ002-015-021-024-NHZ003-005-008-011-012-014-VTZ005-008-232300- NORTHERN NEW ENGLAND CITY SKY/WX TMP DP RH WIND PRES REMARKS PORTLAND ME PTSUNNY 66 62 87 E8 29.62F BANGOR ME MOSUNNY 73 63 70 S15 29.64F CONCORD NH CLOUDY 85 70 60 S12 29.56F MANCHESTER NH PTSUNNY 87 60 40 S13 29.56F NASHUA NH CLOUDY 86 66 51 S5G14 29.58F PORTSMOUTH NH PTSUNNY 78 66 67 SE12 29.57F JAFFREY NH CLOUDY 82 64 54 S9G17 29.62F KEENE NH CLOUDY 82 67 60 SW12 29.59F BURLINGTON VT LGT RAIN 75 70 84 S16G25 29.52F FOG MT. WASHINGTON FOG 55 55 100 S29G41 N/A VSB 0 $$ NYZ052-076-232300- EASTERN NEW YORK CITY SKY/WX TMP DP RH WIND PRES REMARKS ALBANY PTSUNNY 81 69 67 S10 29.56F NEW YORK CITY CLOUDY 85 73 67 SW14 29.64F HX 91 $$ ANZALL-232300- MARINE OBSERVATIONS STATION/POSITION TIME TEMP WIND PRES VSBY WAVE AIR SEA DIR/SP/G HT/PER (UTC) (F) (DEG/KT/KT) (MB) (MI) (FT/S) BOSTON BUOY 2150 65 60 150/ 14/ 16 1003.2F 2/ 4 BUZZARDS BAY 2100 66 200/ 17/ 18 1006.4F NANTUCKET SOUND 2150 65 1006.2F 2/ 3 MASS BAY-STELLWA 2104 67 62 170/ 16/ 19 1003.0F 3/ 4 ISLE OF SHOALS 2100 69 160/ 25/ 27 1002.4F S OF BLOCK IS 2155 64 N/A 4/ 5 $$ ......................KEY......................... SKY/WX - SKY CONDITION/PRESENT WEATHER TMP - TEMPERATURE IN FAHRENHEIT DWPT - DEWPOINT IN FAHRENHEIT RH - RELATIVE HUMIDITY IN PERCENT WIND - DIRECTION AND SPEED IN MPH PRES - MEAN SEA LEVEL PRESSURE IN INCHES OF HG WCI - WIND CHILL INDEX VSB - VISIBILITY IN MILES HX - HEAT INDEX TC - TEMPERATURE IN CELSIUS VRB - VARIABLE WIND DIRECTION N/A - NOT AVAILABLE

USA.gov is the U.S. government's official web portal to all federal, state and local government web resources and services.